Location: Indian Hills
(32.9760°N, 85.9450°W)
Time: 16:38:34
(UTC+00:00)

Lacrosse 5 - Pass Details

Date: 09 December 2019
Orbit: 717 x 722 km, 57.0° (Epoch: 10 January)

Event Time Altitude Azimuth Distance (km) Brightness Sun altitude
Rises 00:16:49 0° 182° (S) 3,106 5.4 -20.4°
Reaches altitude 10° 00:19:41 10° 167° (SSE) 2,189 4.4 -21.0°
Enters shadow 00:21:52 18° 143° (SE) 1,699 3.6 -21.4°
